| time (UTC) | temp F | wind direction | speed MPH | gust MPH | rain 1hr in | rain 24hr in | rain mn in | humidity % | barometer mb |
| 20260508121926 | 65 | 338 | 6.0 | 12.0 | 0.00 | 0.00 | 0.00 | 45 | 1017.0 |
| 20260508121426 | 65 | 286 | 6.0 | 12.0 | 0.00 | 0.00 | 0.00 | 47 | 1017.0 |
| 20260508120925 | 65 | 293 | 4.0 | 10.0 | 0.00 | 0.00 | 0.00 | 47 | 1016.9 |
| 20260508120424 | 65 | 303 | 3.0 | 7.0 | 0.00 | 0.00 | 0.00 | 46 | 1016.9 |
| 20260508115922 | 65 | 321 | 3.0 | 10.0 | 0.00 | 0.00 | 0.00 | 46 | 1016.9 |
| 20260508115422 | 65 | 279 | 4.0 | 10.0 | 0.00 | 0.00 | 0.00 | 49 | 1016.9 |
| 20260508114915 | 64 | 309 | 5.0 | 9.0 | 0.00 | 0.00 | 0.00 | 47 | 1016.9 |
| 20260508114417 | 64 | 244 | 5.0 | 9.0 | 0.00 | 0.00 | 0.00 | 49 | 1016.9 |
| 20260508113918 | 64 | 229 | 4.0 | 9.0 | 0.00 | 0.00 | 0.00 | 49 | 1016.9 |
| 20260508113414 | 63 | 229 | 5.0 | 9.0 | 0.00 | 0.00 | 0.00 | 52 | 1017.1 |
| 20260508112915 | 62 | 311 | 4.0 | 9.0 | 0.00 | 0.00 | 0.00 | 50 | 1017.1 |
| 20260508112414 | 62 | 238 | 3.0 | 9.0 | 0.00 | 0.00 | 0.00 | 50 | 1017.2 |
| 20260508111914 | 62 | 257 | 3.0 | 7.0 | 0.00 | 0.00 | 0.00 | 52 | 1017.2 |
| 20260508111413 | 62 | 332 | 5.0 | 10.0 | 0.00 | 0.00 | 0.00 | 49 | 1017.2 |
| 20260508110912 | 63 | 15 | 6.0 | 11.0 | 0.00 | 0.00 | 0.00 | 49 | 1017.3 |
| 20260508110410 | 64 | 339 | 5.0 | 11.0 | 0.00 | 0.00 | 0.00 | 49 | 1017.2 |
| 20260508105910 | 64 | 307 | 5.0 | 11.0 | 0.00 | 0.00 | 0.00 | 56 | 1017.2 |
| 20260508105409 | 63 | 219 | 5.0 | 11.0 | 0.00 | 0.00 | 0.00 | 54 | 1017.2 |
| 20260508104910 | 62 | 266 | 4.0 | 10.0 | 0.00 | 0.00 | 0.00 | 56 | 1017.3 |
| 20260508104410 | 61 | 279 | 2.0 | 7.0 | 0.00 | 0.00 | 0.00 | 55 | 1017.2 |
| 20260508103903 | 60 | 355 | 4.0 | 7.0 | 0.00 | 0.00 | 0.00 | 56 | 1017.2 |
| 20260508103357 | 60 | 290 | 5.0 | 10.0 | 0.00 | 0.00 | 0.00 | 56 | 1017.2 |
| 20260508102857 | 59 | 284 | 5.0 | 10.0 | 0.00 | 0.00 | 0.00 | 57 | 1017.2 |
| 20260508102350 | 60 | 269 | 4.0 | 9.0 | 0.00 | 0.00 | 0.00 | 57 | 1017.2 |
| 20260508101849 | 59 | 306 | 4.0 | 8.0 | 0.00 | 0.00 | 0.00 | 57 | 1017.2 |
| 20260508101346 | 59 | 314 | 6.0 | 10.0 | 0.00 | 0.00 | 0.00 | 58 | 1017.3 |
| 20260508100847 | 60 | 335 | 5.0 | 10.0 | 0.00 | 0.00 | 0.00 | 58 | 1017.3 |
| 20260508100343 | 59 | 252 | 5.0 | 10.0 | 0.00 | 0.00 | 0.00 | 61 | 1017.3 |
| 20260508095842 | 60 | 330 | 7.0 | 10.0 | 0.00 | 0.00 | 0.00 | 54 | 1017.4 |
| 20260508095344 | 61 | 312 | 5.0 | 10.0 | 0.00 | 0.00 | 0.00 | 55 | 1017.4 |
| 20260508094842 | 61 | 334 | 4.0 | 13.0 | 0.00 | 0.00 | 0.00 | 59 | 1017.4 |
| 20260508094343 | 60 | 259 | 4.0 | 13.0 | 0.00 | 0.00 | 0.00 | 62 | 1017.4 |
| 20260508093839 | 59 | 270 | 4.0 | 11.0 | 0.00 | 0.00 | 0.00 | 64 | 1017.4 |
| 20260508093339 | 58 | 306 | 3.0 | 11.0 | 0.00 | 0.00 | 0.00 | 61 | 1017.5 |
| 20260508092838 | 57 | 264 | 3.0 | 9.0 | 0.00 | 0.00 | 0.00 | 63 | 1017.6 |
| 20260508092338 | 57 | 279 | 5.0 | 10.0 | 0.00 | 0.00 | 0.00 | 61 | 1017.6 |
| 20260508091835 | 57 | 317 | 6.0 | 11.0 | 0.00 | 0.00 | 0.00 | 61 | 1017.6 |
| 20260508091336 | 57 | 317 | 5.0 | 11.0 | 0.00 | 0.00 | 0.00 | 61 | 1017.6 |
| 20260508090836 | 58 | 342 | 5.0 | 12.0 | 0.00 | 0.00 | 0.00 | 59 | 1017.6 |
| 20260508090337 | 58 | 313 | 5.0 | 12.0 | 0.00 | 0.00 | 0.00 | 61 | 1017.6 |
| 20260508085832 | 58 | 310 | 4.0 | 9.0 | 0.00 | 0.00 | 0.00 | 64 | 1017.6 |
| 20260508085333 | 58 | 313 | 4.0 | 8.0 | 0.00 | 0.00 | 0.00 | 66 | 1017.5 |
| 20260508084822 | 57 | 252 | 5.0 | 8.0 | 0.00 | 0.00 | 0.00 | 65 | 1017.6 |
| 20260508084316 | 56 | 242 | 4.0 | 8.0 | 0.00 | 0.00 | 0.00 | 67 | 1017.6 |
| 20260508083814 | 56 | 312 | 4.0 | 6.0 | 0.00 | 0.00 | 0.00 | 67 | 1017.6 |
| 20260508083314 | 56 | 238 | 4.0 | 8.0 | 0.00 | 0.00 | 0.00 | 66 | 1017.6 |
| 20260508082813 | 56 | 253 | 4.0 | 8.0 | 0.00 | 0.00 | 0.00 | 65 | 1017.5 |
| 20260508082310 | 56 | 259 | 3.0 | 6.0 | 0.00 | 0.00 | 0.00 | 70 | 1017.5 |
| 20260508081810 | 55 | 258 | 3.0 | 7.0 | 0.00 | 0.00 | 0.00 | 70 | 1017.5 |
| 20260508081310 | 55 | 282 | 4.0 | 7.0 | 0.00 | 0.00 | 0.00 | 72 | 1017.6 |
| 20260508080810 | 55 | 312 | 4.0 | 8.0 | 0.00 | 0.00 | 0.00 | 72 | 1017.6 |
| 20260508080309 | 55 | 326 | 4.0 | 8.0 | 0.00 | 0.00 | 0.00 | 71 | 1017.5 |
| 20260508075809 | 55 | 317 | 4.0 | 7.0 | 0.00 | 0.00 | 0.00 | 71 | 1017.5 |
| 20260508075310 | 55 | 329 | 3.0 | 7.0 | 0.00 | 0.00 | 0.00 | 72 | 1017.4 |
| 20260508074810 | 55 | 284 | 3.0 | 6.0 | 0.00 | 0.00 | 0.00 | 72 | 1017.4 |
| 20260508074310 | 54 | 298 | 3.0 | 6.0 | 0.00 | 0.00 | 0.00 | 74 | 1017.4 |
| 20260508073808 | 53 | 290 | 3.0 | 8.0 | 0.00 | 0.00 | 0.00 | 76 | 1017.4 |
| 20260508073305 | 53 | 300 | 3.0 | 8.0 | 0.00 | 0.00 | 0.00 | 76 | 1017.4 |
| 20260508072803 | 52 | 261 | 2.0 | 6.0 | 0.00 | 0.00 | 0.00 | 77 | 1017.3 |
| 20260508072301 | 52 | 300 | 2.0 | 5.0 | 0.00 | 0.00 | 0.00 | 79 | 1017.3 |
| 20260508071801 | 52 | 286 | 2.0 | 5.0 | 0.00 | 0.00 | 0.00 | 78 | 1017.4 |
| 20260508071306 | 51 | 305 | 3.0 | 5.0 | 0.00 | 0.00 | 0.00 | 80 | 1017.4 |
| 20260508070800 | 51 | 265 | 2.0 | 5.0 | 0.00 | 0.00 | 0.00 | 82 | 1017.4 |
| 20260508070301 | 51 | 286 | 3.0 | 6.0 | 0.00 | 0.00 | 0.00 | 83 | 1017.4 |
| 20260508065759 | 51 | 301 | 3.0 | 6.0 | 0.00 | 0.00 | 0.00 | 84 | 1017.4 |
| 20260508065300 | 50 | 291 | 2.0 | 5.0 | 0.00 | 0.00 | 0.00 | 86 | 1017.3 |
| 20260508064800 | 50 | 337 | 2.0 | 5.0 | 0.00 | 0.00 | 0.00 | 86 | 1017.3 |
| 20260508064300 | 49 | 256 | 1.0 | 3.0 | 0.00 | 0.00 | 0.00 | 88 | 1017.3 |
| 20260508063759 | 49 | 254 | 1.0 | 3.0 | 0.00 | 0.00 | 0.00 | 90 | 1017.3 |
| 20260508063259 | 48 | 254 | 1.0 | 3.0 | 0.00 | 0.00 | 0.00 | 91 | 1017.3 |
| 20260508062801 | 48 | 254 | 1.0 | 4.0 | 0.00 | 0.00 | 0.00 | 93 | 1017.3 |
| 20260508062258 | 48 | 238 | 1.0 | 4.0 | 0.00 | 0.00 | 0.00 | 94 | 1017.2 |
| 20260508061757 | 47 | 243 | 1.0 | 3.0 | 0.00 | 0.00 | 0.00 | 95 | 1017.2 |
| 20260508061256 | 47 | 245 | 1.0 | 4.0 | 0.00 | 0.00 | 0.00 | 95 | 1017.2 |
| 20260508060756 | 47 | 245 | 1.0 | 4.0 | 0.00 | 0.00 | 0.00 | 95 | 1017.1 |
| 20260508060255 | 47 | 215 | 0.0 | 0.0 | 0.00 | 0.00 | 0.00 | 95 | 1017.1 |
| 20260508055757 | 47 | 264 | 0.0 | 0.0 | 0.00 | 0.00 | 0.00 | 95 | 1017.0 |
| 20260508055256 | 46 | 264 | 0.0 | 0.0 | 0.00 | 0.00 | 0.00 | 95 | 1016.9 |
| 20260508054755 | 46 | 273 | 0.0 | 0.0 | 0.00 | 0.00 | 0.00 | 95 | 1016.9 |
| 20260508054256 | 46 | 273 | 0.0 | 0.0 | 0.00 | 0.00 | 0.00 | 95 | 1016.8 |
| 20260508053755 | 45 | 273 | 0.0 | 0.0 | 0.00 | 0.00 | 0.00 | 95 | 1016.8 |
| 20260508053248 | 44 | 273 | 0.0 | 0.0 | 0.00 | 0.00 | 0.00 | 95 | 1016.8 |
| 20260508052746 | 44 | 273 | 0.0 | 0.0 | 0.00 | 0.00 | 0.00 | 95 | 1016.7 |
| 20260508052247 | 43 | 273 | 0.0 | 0.0 | 0.00 | 0.00 | 0.00 | 95 | 1016.8 |
| 20260508051745 | 42 | 273 | 0.0 | 0.0 | 0.00 | 0.00 | 0.00 | 95 | 1016.8 |
| 20260508051243 | 42 | 273 | 0.0 | 0.0 | 0.00 | 0.00 | 0.00 | 95 | 1016.8 |
| 20260508050745 | 41 | 273 | 0.0 | 0.0 | 0.00 | 0.00 | 0.00 | 94 | 1016.7 |
| 20260508050242 | 41 | 273 | 0.0 | 0.0 | 0.00 | 0.00 | 0.00 | 94 | 1016.7 |
| 20260508045742 | 40 | 273 | 0.0 | 0.0 | 0.00 | 0.00 | 0.00 | 94 | 1016.7 |
| 20260508045243 | 40 | 273 | 0.0 | 0.0 | 0.00 | 0.00 | 0.00 | 94 | 1016.6 |
| 20260508044740 | 40 | 273 | 0.0 | 0.0 | 0.00 | 0.00 | 0.00 | 94 | 1016.6 |
| 20260508044239 | 39 | 273 | 0.0 | 0.0 | 0.00 | 0.00 | 0.00 | 94 | 1016.5 |
| 20260508043736 | 39 | 273 | 0.0 | 0.0 | 0.00 | 0.00 | 0.00 | 93 | 1016.5 |
| 20260508043238 | 39 | 273 | 0.0 | 0.0 | 0.00 | 0.00 | 0.00 | 93 | 1016.3 |
| 20260508042737 | 38 | 273 | 0.0 | 0.0 | 0.00 | 0.00 | 0.00 | 93 | 1016.5 |
| 20260508042233 | 38 | 273 | 0.0 | 0.0 | 0.00 | 0.00 | 0.00 | 93 | 1016.3 |
| 20260508041733 | 38 | 273 | 0.0 | 0.0 | 0.00 | 0.00 | 0.00 | 92 | 1016.3 |
| 20260508041231 | 37 | 273 | 0.0 | 0.0 | 0.00 | 0.00 | 0.00 | 92 | 1016.3 |
| 20260508040733 | 37 | 273 | 0.0 | 0.0 | 0.00 | 0.00 | 0.00 | 92 | 1016.2 |
| 20260508040232 | 37 | 273 | 0.0 | 0.0 | 0.00 | 0.00 | 0.00 | 91 | 1016.2 |
| 20260508035725 | 37 | 273 | 0.0 | 0.0 | 0.00 | 0.00 | 0.00 | 90 | 1016.2 |
| 20260508035226 | 37 | 273 | 0.0 | 0.0 | 0.00 | 0.00 | 0.00 | 90 | 1016.2 |
| 20260508034722 | 37 | 273 | 0.0 | 0.0 | 0.00 | 0.00 | 0.00 | 89 | 1016.2 |
| 20260508034219 | 37 | 273 | 0.0 | 0.0 | 0.00 | 0.00 | 0.00 | 89 | 1016.2 |
| 20260508033715 | 37 | 273 | 0.0 | 0.0 | 0.00 | 0.00 | 0.00 | 89 | 1016.2 |
| 20260508033215 | 37 | 273 | 0.0 | 0.0 | 0.00 | 0.00 | 0.00 | 89 | 1016.2 |
| 20260508032716 | 37 | 273 | 0.0 | 0.0 | 0.00 | 0.00 | 0.00 | 89 | 1016.2 |
| 20260508032230 | 37 | 273 | 0.0 | 0.0 | 0.00 | 0.00 | 0.00 | 89 | 1016.1 |
| 20260508031717 | 37 | 273 | 0.0 | 0.0 | 0.00 | 0.00 | 0.00 | 88 | 1016.0 |
| 20260508031217 | 38 | 273 | 0.0 | 0.0 | 0.00 | 0.00 | 0.00 | 88 | 1016.0 |
| 20260508030713 | 38 | 273 | 0.0 | 0.0 | 0.00 | 0.00 | 0.00 | 88 | 1016.0 |
| 20260508030212 | 38 | 273 | 0.0 | 0.0 | 0.00 | 0.00 | 0.00 | 89 | 1016.0 |
| 20260508025711 | 38 | 273 | 0.0 | 0.0 | 0.00 | 0.00 | 0.00 | 88 | 1015.9 |
| 20260508025209 | 38 | 273 | 0.0 | 0.0 | 0.00 | 0.00 | 0.00 | 87 | 1015.9 |
| 20260508024708 | 38 | 273 | 0.0 | 0.0 | 0.00 | 0.00 | 0.00 | 87 | 1015.9 |
| 20260508024209 | 38 | 273 | 0.0 | 0.0 | 0.00 | 0.00 | 0.00 | 87 | 1015.8 |
| 20260508023703 | 39 | 273 | 0.0 | 0.0 | 0.00 | 0.00 | 0.00 | 87 | 1015.8 |
| 20260508023203 | 39 | 273 | 0.0 | 0.0 | 0.00 | 0.00 | 0.00 | 86 | 1015.9 |
| 20260508022701 | 39 | 273 | 0.0 | 0.0 | 0.00 | 0.00 | 0.00 | 86 | 1015.8 |
| 20260508022204 | 39 | 273 | 0.0 | 0.0 | 0.00 | 0.00 | 0.00 | 87 | 1015.8 |
| 20260508021654 | 40 | 273 | 0.0 | 0.0 | 0.00 | 0.00 | 0.00 | 87 | 1015.8 |
| 20260508021156 | 40 | 273 | 0.0 | 0.0 | 0.00 | 0.00 | 0.00 | 87 | 1015.8 |
| 20260508020648 | 40 | 273 | 0.0 | 0.0 | 0.00 | 0.00 | 0.00 | 87 | 1015.8 |
| 20260508020144 | 40 | 273 | 0.0 | 0.0 | 0.00 | 0.00 | 0.00 | 87 | 1015.8 |
| 20260508015632 | 41 | 273 | 0.0 | 0.0 | 0.00 | 0.00 | 0.00 | 88 | 1015.8 |
| 20260508015126 | 41 | 273 | 0.0 | 0.0 | 0.00 | 0.00 | 0.00 | 88 | 1015.8 |
| 20260508014620 | 41 | 273 | 0.0 | 0.0 | 0.00 | 0.00 | 0.00 | 88 | 1015.8 |
| 20260508014117 | 41 | 273 | 0.0 | 0.0 | 0.00 | 0.00 | 0.00 | 88 | 1015.9 |
| 20260508013614 | 41 | 273 | 0.0 | 0.0 | 0.00 | 0.00 | 0.00 | 88 | 1015.8 |
| 20260508013103 | 42 | 273 | 0.0 | 0.0 | 0.00 | 0.00 | 0.00 | 87 | 1015.8 |
| 20260508012603 | 42 | 273 | 0.0 | 0.0 | 0.00 | 0.00 | 0.00 | 86 | 1015.7 |
| 20260508012054 | 42 | 273 | 0.0 | 0.0 | 0.00 | 0.00 | 0.00 | 86 | 1015.7 |
| 20260508011550 | 42 | 273 | 0.0 | 0.0 | 0.00 | 0.00 | 0.00 | 86 | 1015.7 |
| 20260508011048 | 42 | 273 | 0.0 | 0.0 | 0.00 | 0.00 | 0.00 | 86 | 1015.8 |
| 20260508010548 | 42 | 273 | 0.0 | 0.0 | 0.00 | 0.00 | 0.00 | 86 | 1015.7 |
| 20260508010047 | 43 | 273 | 0.0 | 0.0 | 0.00 | 0.00 | 0.00 | 86 | 1015.7 |
| 20260508005547 | 43 | 273 | 0.0 | 0.0 | 0.00 | 0.00 | 0.00 | 86 | 1015.7 |
| 20260508005047 | 43 | 273 | 0.0 | 0.0 | 0.00 | 0.00 | 0.00 | 86 | 1015.7 |
| 20260508004544 | 43 | 273 | 0.0 | 0.0 | 0.00 | 0.00 | 0.00 | 86 | 1015.8 |
| 20260508004042 | 43 | 273 | 0.0 | 2.0 | 0.00 | 0.00 | 0.00 | 85 | 1015.7 |
| 20260508003540 | 44 | 273 | 0.0 | 2.0 | 0.00 | 0.00 | 0.00 | 84 | 1015.7 |
| 20260508003037 | 44 | 273 | 0.0 | 1.0 | 0.00 | 0.00 | 0.00 | 84 | 1015.7 |
| 20260508002538 | 44 | 273 | 0.0 | 1.0 | 0.00 | 0.00 | 0.00 | 84 | 1015.7 |
| 20260508002036 | 44 | 273 | 0.0 | 1.0 | 0.00 | 0.00 | 0.00 | 84 | 1015.7 |
| 20260508001534 | 44 | 273 | 0.0 | 1.0 | 0.00 | 0.00 | 0.00 | 85 | 1015.7 |
| 20260508001034 | 45 | 273 | 0.0 | 1.0 | 0.00 | 0.00 | 0.00 | 85 | 1015.7 |
| 20260508000533 | 45 | 273 | 0.0 | 3.0 | 0.00 | 0.00 | 0.00 | 86 | 1015.7 |
| 20260508000044 | 45 | 273 | 1.0 | 3.0 | 0.00 | 0.00 | 0.00 | 86 | 1015.7 |
| 20260507235530 | 45 | 273 | 2.0 | 3.0 | 0.00 | 0.00 | 0.00 | 86 | 1015.7 |
| 20260507235028 | 45 | 274 | 2.0 | 3.0 | 0.00 | 0.00 | 0.00 | 85 | 1015.7 |
| 20260507234527 | 45 | 286 | 1.0 | 3.0 | 0.00 | 0.00 | 0.00 | 84 | 1015.8 |
| 20260507234027 | 46 | 288 | 1.0 | 2.0 | 0.00 | 0.00 | 0.00 | 83 | 1015.7 |
| 20260507233527 | 46 | 288 | 1.0 | 2.0 | 0.00 | 0.00 | 0.00 | 83 | 1015.7 |
| 20260507233028 | 46 | 288 | 0.0 | 2.0 | 0.00 | 0.00 | 0.00 | 82 | 1015.8 |
| 20260507232525 | 46 | 288 | 1.0 | 4.0 | 0.00 | 0.00 | 0.00 | 82 | 1015.8 |
| 20260507232025 | 46 | 288 | 2.0 | 4.0 | 0.00 | 0.00 | 0.00 | 82 | 1015.8 |
| 20260507231522 | 47 | 294 | 2.0 | 4.0 | 0.00 | 0.00 | 0.00 | 82 | 1015.7 |
| 20260507231018 | 47 | 279 | 2.0 | 4.0 | 0.00 | 0.00 | 0.00 | 81 | 1015.8 |
| 20260507230518 | 47 | 294 | 2.0 | 4.0 | 0.00 | 0.00 | 0.00 | 81 | 1015.8 |
| 20260507230017 | 47 | 319 | 2.0 | 4.0 | 0.00 | 0.00 | 0.00 | 81 | 1015.8 |
| 20260507225517 | 47 | 310 | 2.0 | 3.0 | 0.00 | 0.00 | 0.00 | 81 | 1015.8 |
| 20260507225018 | 48 | 311 | 2.0 | 4.0 | 0.00 | 0.00 | 0.00 | 80 | 1015.9 |
| 20260507224520 | 48 | 303 | 2.0 | 4.0 | 0.00 | 0.00 | 0.00 | 80 | 1015.9 |
| 20260507224015 | 48 | 283 | 1.0 | 4.0 | 0.00 | 0.00 | 0.00 | 79 | 1015.9 |
| 20260507223505 | 48 | 284 | 2.0 | 4.0 | 0.00 | 0.00 | 0.00 | 80 | 1015.9 |
| 20260507222955 | 49 | 290 | 2.0 | 4.0 | 0.00 | 0.00 | 0.00 | 80 | 1015.9 |
| 20260507222445 | 49 | 297 | 2.0 | 5.0 | 0.00 | 0.00 | 0.00 | 79 | 1015.9 |
| 20260507221935 | 49 | 284 | 2.0 | 5.0 | 0.00 | 0.00 | 0.00 | 80 | 1015.9 |
| 20260507221435 | 49 | 307 | 2.0 | 4.0 | 0.00 | 0.00 | 0.00 | 79 | 1015.9 |
| 20260507220936 | 49 | 298 | 2.0 | 6.0 | 0.00 | 0.00 | 0.00 | 79 | 1015.8 |
| 20260507220433 | 49 | 287 | 3.0 | 6.0 | 0.00 | 0.00 | 0.00 | 78 | 1015.8 |
| 20260507215933 | 50 | 289 | 3.0 | 6.0 | 0.00 | 0.00 | 0.00 | 78 | 1015.8 |
| 20260507215432 | 50 | 285 | 3.0 | 6.0 | 0.00 | 0.00 | 0.00 | 77 | 1015.7 |
| 20260507214932 | 50 | 292 | 4.0 | 9.0 | 0.00 | 0.00 | 0.00 | 77 | 1015.7 |
| 20260507214435 | 50 | 302 | 4.0 | 9.0 | 0.00 | 0.00 | 0.00 | 77 | 1015.8 |
| 20260507213933 | 50 | 342 | 4.0 | 8.0 | 0.00 | 0.00 | 0.00 | 76 | 1015.8 |
| 20260507213432 | 51 | 283 | 3.0 | 8.0 | 0.00 | 0.00 | 0.00 | 75 | 1015.7 |
| 20260507212932 | 51 | 305 | 3.0 | 8.0 | 0.00 | 0.00 | 0.00 | 74 | 1015.8 |
| 20260507212432 | 51 | 284 | 3.0 | 6.0 | 0.00 | 0.00 | 0.00 | 74 | 1015.7 |
| 20260507211930 | 51 | 296 | 4.0 | 7.0 | 0.00 | 0.00 | 0.00 | 73 | 1015.7 |
| 20260507211438 | 52 | 282 | 4.0 | 7.0 | 0.00 | 0.00 | 0.00 | 73 | 1015.7 |
| 20260507210930 | 52 | 280 | 3.0 | 7.0 | 0.00 | 0.00 | 0.00 | 72 | 1015.7 |
| 20260507210432 | 52 | 260 | 3.0 | 7.0 | 0.00 | 0.00 | 0.00 | 72 | 1015.7 |
| 20260507205932 | 53 | 276 | 4.0 | 8.0 | 0.00 | 0.00 | 0.00 | 71 | 1015.8 |
| 20260507205430 | 53 | 329 | 5.0 | 10.0 | 0.00 | 0.00 | 0.00 | 71 | 1015.7 |
| 20260507204930 | 53 | 305 | 5.0 | 10.0 | 0.00 | 0.00 | 0.00 | 71 | 1015.7 |
| 20260507204429 | 53 | 300 | 5.0 | 8.0 | 0.00 | 0.00 | 0.00 | 70 | 1015.5 |
| 20260507203932 | 53 | 303 | 4.0 | 9.0 | 0.00 | 0.00 | 0.00 | 70 | 1015.5 |
| 20260507203424 | 53 | 297 | 4.0 | 9.0 | 0.00 | 0.00 | 0.00 | 70 | 1015.5 |
| 20260507202915 | 53 | 319 | 5.0 | 8.0 | 0.00 | 0.00 | 0.00 | 70 | 1015.4 |
| 20260507202414 | 53 | 298 | 5.0 | 8.0 | 0.00 | 0.00 | 0.00 | 70 | 1015.4 |
| 20260507201914 | 54 | 276 | 4.0 | 8.0 | 0.00 | 0.00 | 0.00 | 70 | 1015.3 |
| 20260507201416 | 54 | 319 | 5.0 | 10.0 | 0.00 | 0.00 | 0.00 | 69 | 1015.2 |
| 20260507200916 | 54 | 297 | 6.0 | 11.0 | 0.00 | 0.00 | 0.00 | 69 | 1015.1 |
| 20260507200413 | 54 | 331 | 7.0 | 13.0 | 0.00 | 0.00 | 0.00 | 69 | 1015.1 |
| 20260507195912 | 55 | 330 | 7.0 | 13.0 | 0.00 | 0.00 | 0.00 | 69 | 1015.0 |
| 20260507195412 | 55 | 306 | 8.0 | 12.0 | 0.00 | 0.00 | 0.00 | 69 | 1015.0 |
| 20260507194913 | 55 | 311 | 9.0 | 13.0 | 0.00 | 0.00 | 0.00 | 69 | 1014.9 |
| 20260507194410 | 55 | 314 | 8.0 | 13.0 | 0.00 | 0.00 | 0.00 | 69 | 1014.9 |
| 20260507193910 | 55 | 320 | 7.0 | 13.0 | 0.00 | 0.00 | 0.00 | 69 | 1014.8 |
| 20260507193411 | 56 | 292 | 7.0 | 13.0 | 0.00 | 0.00 | 0.00 | 69 | 1014.7 |
| 20260507192910 | 56 | 328 | 7.0 | 13.0 | 0.00 | 0.00 | 0.00 | 69 | 1014.7 |
| 20260507192409 | 56 | 327 | 6.0 | 10.0 | 0.00 | 0.00 | 0.00 | 68 | 1014.7 |
| 20260507191911 | 56 | 321 | 7.0 | 11.0 | 0.00 | 0.00 | 0.00 | 68 | 1014.5 |
| 20260507191412 | 56 | 5 | 6.0 | 11.0 | 0.00 | 0.00 | 0.00 | 68 | 1014.5 |
| 20260507190910 | 56 | 325 | 6.0 | 9.0 | 0.00 | 0.00 | 0.00 | 68 | 1014.5 |
| 20260507190412 | 56 | 325 | 6.0 | 10.0 | 0.00 | 0.00 | 0.00 | 68 | 1014.4 |
| 20260507185909 | 56 | 306 | 6.0 | 10.0 | 0.00 | 0.00 | 0.00 | 68 | 1014.4 |
| 20260507185410 | 56 | 323 | 5.0 | 9.0 | 0.00 | 0.00 | 0.00 | 68 | 1014.3 |
| 20260507184908 | 56 | 340 | 4.0 | 9.0 | 0.00 | 0.00 | 0.00 | 67 | 1014.2 |
| 20260507184408 | 56 | 310 | 3.0 | 5.0 | 0.00 | 0.00 | 0.00 | 67 | 1014.1 |
| 20260507183907 | 56 | 312 | 3.0 | 5.0 | 0.00 | 0.00 | 0.00 | 67 | 1014.0 |
| 20260507183408 | 56 | 330 | 2.0 | 4.0 | 0.00 | 0.00 | 0.00 | 66 | 1013.9 |
| 20260507182908 | 57 | 332 | 2.0 | 3.0 | 0.00 | 0.00 | 0.00 | 66 | 1013.8 |
| 20260507182409 | 57 | 332 | 1.0 | 3.0 | 0.00 | 0.00 | 0.00 | 66 | 1013.7 |
| 20260507181909 | 57 | 332 | 1.0 | 2.0 | 0.00 | 0.00 | 0.00 | 65 | 1013.6 |
| 20260507181402 | 57 | 332 | 1.0 | 3.0 | 0.00 | 0.00 | 0.00 | 64 | 1013.6 |
| 20260507180901 | 57 | 332 | 2.0 | 4.0 | 0.00 | 0.00 | 0.00 | 64 | 1013.5 |
| 20260507180403 | 57 | 332 | 3.0 | 4.0 | 0.00 | 0.00 | 0.00 | 64 | 1013.4 |
| 20260507175903 | 57 | 340 | 3.0 | 5.0 | 0.00 | 0.00 | 0.00 | 63 | 1013.3 |
| 20260507175403 | 58 | 335 | 4.0 | 6.0 | 0.00 | 0.00 | 0.00 | 63 | 1013.2 |
| 20260507174903 | 58 | 338 | 5.0 | 7.0 | 0.00 | 0.00 | 0.00 | 62 | 1013.1 |
| 20260507174403 | 58 | 331 | 6.0 | 9.0 | 0.00 | 0.00 | 0.00 | 61 | 1013.1 |
| 20260507173905 | 58 | 309 | 5.0 | 9.0 | 0.00 | 0.00 | 0.00 | 60 | 1013.0 |
| 20260507173403 | 59 | 339 | 6.0 | 10.0 | 0.00 | 0.00 | 0.00 | 60 | 1013.0 |
| 20260507172903 | 59 | 335 | 7.0 | 15.0 | 0.00 | 0.00 | 0.00 | 59 | 1013.0 |
| 20260507172403 | 60 | 315 | 8.0 | 15.0 | 0.00 | 0.00 | 0.00 | 58 | 1012.9 |
| 20260507171905 | 60 | 321 | 9.0 | 18.0 | 0.00 | 0.00 | 0.00 | 57 | 1012.9 |
| 20260507171402 | 61 | 305 | 7.0 | 18.0 | 0.00 | 0.00 | 0.00 | 56 | 1012.9 |
| 20260507170902 | 61 | 316 | 3.0 | 10.0 | 0.00 | 0.00 | 0.00 | 56 | 1012.8 |
| 20260507170402 | 62 | 288 | 4.0 | 7.0 | 0.00 | 0.00 | 0.00 | 55 | 1012.5 |
| 20260507165901 | 62 | 279 | 4.0 | 7.0 | 0.00 | 0.00 | 0.00 | 54 | 1012.5 |
| 20260507165402 | 62 | 288 | 4.0 | 10.0 | 0.00 | 0.00 | 0.00 | 55 | 1012.5 |
| 20260507164903 | 62 | 269 | 4.0 | 10.0 | 0.00 | 0.00 | 0.00 | 52 | 1012.5 |
| 20260507164403 | 62 | 251 | 3.0 | 8.0 | 0.00 | 0.00 | 0.00 | 53 | 1012.5 |
| 20260507163903 | 62 | 261 | 3.0 | 7.0 | 0.00 | 0.00 | 0.00 | 53 | 1012.4 |
| 20260507163403 | 62 | 276 | 3.0 | 8.0 | 0.00 | 0.00 | 0.00 | 55 | 1012.5 |
| 20260507162902 | 62 | 284 | 4.0 | 9.0 | 0.00 | 0.00 | 0.00 | 53 | 1012.5 |
| 20260507162402 | 62 | 293 | 4.0 | 9.0 | 0.00 | 0.00 | 0.00 | 53 | 1012.4 |
| 20260507161902 | 62 | 279 | 4.0 | 7.0 | 0.00 | 0.00 | 0.00 | 53 | 1012.4 |
| 20260507161401 | 62 | 249 | 3.0 | 7.0 | 0.00 | 0.00 | 0.00 | 51 | 1012.4 |
| 20260507160902 | 63 | 298 | 4.0 | 9.0 | 0.00 | 0.00 | 0.00 | 51 | 1012.4 |
| 20260507160400 | 63 | 296 | 5.0 | 9.0 | 0.00 | 0.00 | 0.00 | 51 | 1012.4 |
| 20260507155858 | 63 | 325 | 6.0 | 10.0 | 0.00 | 0.00 | 0.00 | 49 | 1012.3 |
| 20260507155358 | 64 | 306 | 5.0 | 10.0 | 0.00 | 0.00 | 0.00 | 50 | 1012.2 |
| 20260507154858 | 64 | 325 | 5.0 | 10.0 | 0.00 | 0.00 | 0.00 | 48 | 1012.2 |
| 20260507154359 | 64 | 286 | 5.0 | 10.0 | 0.00 | 0.00 | 0.00 | 48 | 1012.2 |
| 20260507153856 | 64 | 265 | 5.0 | 9.0 | 0.00 | 0.00 | 0.00 | 48 | 1012.2 |
| 20260507153606 | 65 | 317 | 4.0 | 8.0 | 0.00 | 0.00 | 0.00 | 48 | 1012.3 |
| 20260507153347 | 65 | 317 | 4.0 | 8.0 | 0.00 | 0.00 | 0.00 | 48 | 1012.3 |
| 20260507152845 | 65 | 290 | 5.0 | 9.0 | 0.00 | 0.00 | 0.00 | 49 | 1012.3 |
| 20260507152545 | 65 | 290 | 5.0 | 13.0 | 0.00 | 0.00 | 0.00 | 52 | 1012.3 |
| 20260507152342 | 65 | 247 | 5.0 | 13.0 | 0.00 | 0.00 | 0.00 | 48 | 1012.3 |
| 20260507151842 | 65 | 290 | 5.0 | 13.0 | 0.00 | 0.00 | 0.00 | 52 | 1012.3 |
| 20260507151342 | 64 | 293 | 5.0 | 10.0 | 0.00 | 0.00 | 0.00 | 48 | 1012.2 |
| 20260507150839 | 64 | 245 | 6.0 | 11.0 | 0.00 | 0.00 | 0.00 | 50 | 1012.3 |
| 20260507150340 | 64 | 310 | 6.0 | 11.0 | 0.00 | 0.00 | 0.00 | 48 | 1012.3 |
| 20260507145837 | 65 | 292 | 5.0 | 10.0 | 0.00 | 0.00 | 0.00 | 48 | 1012.3 |
| 20260507145339 | 65 | 300 | 4.0 | 10.0 | 0.00 | 0.00 | 0.00 | 49 | 1012.2 |
| 20260507144836 | 65 | 299 | 5.0 | 11.0 | 0.00 | 0.00 | 0.00 | 47 | 1012.2 |
| 20260507144336 | 65 | 300 | 6.0 | 11.0 | 0.00 | 0.00 | 0.00 | 46 | 1012.2 |
| 20260507143837 | 66 | 274 | 6.0 | 13.0 | 0.00 | 0.00 | 0.00 | 44 | 1012.1 |
| 20260507143334 | 67 | 296 | 6.0 | 13.0 | 0.00 | 0.00 | 0.00 | 46 | 1012.2 |
| 20260507142833 | 66 | 270 | 6.0 | 10.0 | 0.00 | 0.00 | 0.00 | 48 | 1012.1 |
| 20260507142332 | 65 | 298 | 6.0 | 10.0 | 0.00 | 0.00 | 0.00 | 47 | 1012.1 |
| 20260507141832 | 65 | 296 | 6.0 | 10.0 | 0.00 | 0.00 | 0.00 | 48 | 1012.1 |
| 20260507141332 | 65 | 258 | 6.0 | 13.0 | 0.00 | 0.00 | 0.00 | 47 | 1012.2 |
| 20260507140831 | 65 | 340 | 7.0 | 13.0 | 0.00 | 0.00 | 0.00 | 49 | 1012.2 |
| 20260507140325 | 66 | 237 | 6.0 | 12.0 | 0.00 | 0.00 | 0.00 | 47 | 1012.2 |
| 20260507135827 | 66 | 302 | 6.0 | 12.0 | 0.00 | 0.00 | 0.00 | 46 | 1012.1 |
| 20260507135321 | 66 | 264 | 7.0 | 15.0 | 0.00 | 0.00 | 0.00 | 46 | 1012.2 |
| 20260507134809 | 66 | 290 | 7.0 | 15.0 | 0.00 | 0.00 | 0.00 | 46 | 1012.2 |
| 20260507134304 | 66 | 252 | 7.0 | 14.0 | 0.00 | 0.00 | 0.00 | 49 | 1012.2 |
| 20260507133804 | 65 | 321 | 7.0 | 14.0 | 0.00 | 0.00 | 0.00 | 47 | 1012.2 |
| 20260507133304 | 66 | 257 | 7.0 | 17.0 | 0.00 | 0.00 | 0.00 | 46 | 1012.3 |
| 20260507132803 | 65 | 271 | 7.0 | 17.0 | 0.00 | 0.00 | 0.00 | 49 | 1012.3 |
| 20260507132307 | 66 | 339 | 7.0 | 13.0 | 0.00 | 0.00 | 0.00 | 47 | 1012.3 |
| 20260507131804 | 67 | 264 | 7.0 | 13.0 | 0.00 | 0.00 | 0.00 | 46 | 1012.3 |
| 20260507131304 | 67 | 310 | 6.0 | 15.0 | 0.00 | 0.00 | 0.00 | 47 | 1012.3 |
| 20260507130802 | 67 | 333 | 8.0 | 15.0 | 0.00 | 0.00 | 0.00 | 48 | 1012.2 |
| 20260507130303 | 67 | 285 | 8.0 | 17.0 | 0.00 | 0.00 | 0.00 | 46 | 1012.3 |
| 20260507125802 | 68 | 262 | 7.0 | 17.0 | 0.00 | 0.00 | 0.00 | 46 | 1012.3 |
| 20260507125306 | 68 | 321 | 6.0 | 12.0 | 0.00 | 0.00 | 0.00 | 49 | 1012.3 |
| 20260507124801 | 67 | 274 | 5.0 | 12.0 | 0.00 | 0.00 | 0.00 | 50 | 1012.3 |
| 20260507124300 | 67 | 265 | 7.0 | 16.0 | 0.00 | 0.00 | 0.00 | 47 | 1012.3 |
| 20260507123802 | 67 | 259 | 7.0 | 16.0 | 0.00 | 0.00 | 0.00 | 49 | 1012.3 |
| 20260507123300 | 66 | 256 | 5.0 | 16.0 | 0.00 | 0.00 | 0.00 | 52 | 1012.3 |
| 20260507122759 | 65 | 259 | 6.0 | 14.0 | 0.00 | 0.00 | 0.00 | 49 | 1012.2 |
| 20260507122300 | 66 | 284 | 8.0 | 14.0 | 0.00 | 0.00 | 0.00 | 49 | 1012.3 |